{"data":{"norad_id":69913,"epoch":"2026-09-20T04:08:18.948192Z","epoch_age_seconds":46012,"freshness":"FRESH","line1":"1 69913U 26156AW  26263.17244153  .00000758  00000+0  82215-4 0  9995","line2":"2 69913  97.7496 162.3188 0001154 265.8069  94.3017 14.91033018 11150","mean_motion":14.91033018,"eccentricity":0.0001154,"inclination_deg":97.7496,"raan_deg":162.3188,"arg_perigee_deg":265.8069,"mean_anomaly_deg":94.3017,"bstar":8.2215e-5,"rev_number":1115,"period_min":96.577338168644,"perigee_km":593.90851616917,"apogee_km":595.51784999143,"semimajor_km":6972.8501830803,"source":"CELESTRAK","updated_at":"2026-09-20T09:00:25.179833Z"}}